DW7816 Weather Reports


Display with metric or nautical units.
time (UTC)temp
F
wind
direction
speed
MPH
gust
MPH
rain 1hr
in
rain 24hr
in
rain mn
in
humidity
%
barometer
mb
20260902174514 94 313 2.0 7.0 0.00 0.00 0.00 55 1015.5
20260902173519 94 291 1.0 0.0 0.00 0.00 0.00 58 1015.6
20260902172524 93 239 1.0 7.0 0.00 0.00 0.00 57 1015.8
20260902171452 93 167 1.0 0.0 0.00 0.00 0.00 60 1015.9
20260902170423 93 288 1.0 6.0 0.00 0.00 0.00 59 1016.0
20260902165359 92 298 1.0 5.0 0.00 0.00 0.00 60 1016.2
20260902164406 92 223 2.0 8.0 0.00 0.00 0.00 61 1016.2
20260902163412 92 319 1.0 5.0 0.00 0.00 0.00 59 1016.3
20260902162343 91 202 1.0 6.0 0.00 0.00 0.00 62 1016.5
20260902161314 91 284 1.0 6.0 0.00 0.00 0.00 61 1016.6
20260902160315 91 317 1.0 5.0 0.00 0.00 0.00 63 1016.6
20260902155317 90 281 2.0 7.0 0.00 0.00 0.00 63 1016.7
20260902154249 90 322 1.0 7.0 0.00 0.00 0.00 64 1016.6
20260902152210 89 277 0.0 8.0 0.00 0.00 0.00 67 1016.5
20260902151142 88 333 2.0 8.0 0.00 0.00 0.00 65 1016.4
20260902145055 87 194 1.0 5.0 0.00 0.00 0.00 68 1016.4
20260902144112 87 284 1.0 5.0 0.00 0.00 0.00 68 1016.5
20260902143123 87 285 0.0 4.0 0.00 0.00 0.00 70 1016.5
20260902141009 85 194 0.0 2.0 0.00 0.00 0.00 73 1016.6
20260902132618 80 200 0.0 2.0 0.00 0.00 0.00 82 1016.9
20260902131601 78 217 0.0 3.0 0.00 0.00 0.00 87 1016.8
20260902130530 76 174 0.0 2.0 0.00 0.00 0.00 92 1016.9
20260902125505 73 174 0.0 0.0 0.00 0.00 0.00 95 1016.9
20260902124523 72 207 0.0 0.0 0.00 0.00 0.00 95 1016.8
20260902123516 71 207 0.0 0.0 0.00 0.00 0.00 96 1016.8
20260902122514 70 207 0.0 0.0 0.00 0.00 0.00 96 1016.8
20260902121458 70 207 0.0 0.0 0.00 0.00 0.00 95 1016.7
20260902120440 70 207 0.0 0.0 0.00 0.00 0.00 94 1016.6
20260902115452 70 207 0.0 0.0 0.00 0.00 0.00 94 1016.4
20260902113400 70 207 0.0 0.0 0.00 0.00 0.00 93 1016.2
20260902112404 70 207 0.0 0.0 0.00 0.00 0.00 93 1016.1
20260902111352 70 207 0.0 0.0 0.00 0.00 0.00 93 1016.0
20260902110323 70 207 0.0 0.0 0.00 0.00 0.00 93 1015.9
20260902105319 70 207 0.0 0.0 0.00 0.00 0.00 93 1015.9
20260902104251 70 207 0.0 1.0 0.00 0.00 0.00 93 1015.9
20260902102146 70 207 0.0 0.0 0.00 0.00 0.00 93 1015.7
20260902101127 70 207 0.0 0.0 0.00 0.00 0.00 93 1015.7
20260902100106 70 207 0.0 0.0 0.00 0.00 0.00 94 1015.7
20260902093924 70 207 0.0 0.0 0.00 0.00 0.00 95 1015.7
20260902091830 69 121 0.0 0.0 0.00 0.00 0.00 95 1015.5
20260902090803 69 121 0.0 0.0 0.00 0.00 0.00 94 1015.5
20260902085746 70 121 0.0 0.0 0.00 0.00 0.00 94 1015.5
20260902083623 69 121 0.0 0.0 0.00 0.00 0.00 94 1015.6
20260902082634 70 121 0.0 0.0 0.00 0.00 0.00 94 1015.6
20260902081605 70 121 0.0 0.0 0.00 0.00 0.00 94 1015.7
20260902080628 70 121 0.0 0.0 0.00 0.00 0.00 94 1015.8
20260902074439 70 121 0.0 0.0 0.00 0.00 0.00 94 1015.5
20260902073432 70 121 0.0 0.0 0.00 0.00 0.00 94 1015.6
20260902072428 70 121 0.0 0.0 0.00 0.00 0.00 94 1015.5
20260902071418 70 121 0.0 0.0 0.00 0.00 0.00 94 1015.6
20260902070354 70 121 0.0 0.0 0.00 0.00 0.00 94 1015.6
20260902065331 70 121 0.0 0.0 0.00 0.00 0.00 94 1015.6
20260902064336 70 121 0.0 0.0 0.00 0.00 0.00 94 1015.5
20260902063308 70 121 0.0 0.0 0.00 0.00 0.00 94 1015.5
20260902062256 70 121 0.0 0.0 0.00 0.00 0.00 93 1015.5
20260902061247 70 121 0.0 0.0 0.00 0.00 0.00 92 1015.5
20260902060248 71 121 0.0 0.0 0.00 0.00 0.00 92 1015.5
20260902055312 71 121 0.0 0.0 0.00 0.00 0.00 92 1015.4
20260902054331 71 121 0.0 0.0 0.00 0.00 0.00 92 1015.4
20260902053302 71 121 0.0 0.0 0.00 0.00 0.00 92 1015.4
20260902052307 71 121 0.0 0.0 0.00 0.00 0.00 92 1015.4
20260902051322 72 121 0.0 0.0 0.00 0.00 0.00 92 1015.3
20260902050317 72 121 0.0 0.0 0.00 0.00 0.00 91 1015.4
20260902045247 72 121 0.0 0.0 0.00 0.00 0.00 91 1015.3
20260902044306 72 121 0.0 0.0 0.00 0.00 0.00 91 1015.2
20260902042139 73 121 0.0 0.0 0.00 0.00 0.00 90 1015.0
20260902041108 73 121 0.0 0.0 0.00 0.00 0.00 91 1015.0
20260902040110 73 121 0.0 0.0 0.00 0.00 0.00 90 1015.0
20260902035101 73 121 0.0 0.0 0.00 0.00 0.00 91 1014.9
20260902034034 73 121 0.0 0.0 0.00 0.00 0.00 91 1014.9
20260902033021 73 121 0.0 0.0 0.00 0.00 0.00 91 1015.0
20260902032017 74 121 0.0 0.0 0.00 0.00 0.00 91 1014.9
20260902031007 74 121 0.0 0.0 0.00 0.00 0.00 90 1014.7
20260902025942 74 121 0.0 0.0 0.00 0.00 0.00 90 1014.6
20260902024932 75 121 0.0 0.0 0.00 0.00 0.00 90 1014.5
20260902022755 76 121 0.0 0.0 0.00 0.00 0.00 89 1014.2
20260902021804 76 121 0.0 0.0 0.00 0.00 0.00 88 1014.0
20260902020820 77 121 0.0 0.0 0.00 0.00 0.00 88 1013.8
20260902015812 77 121 0.0 0.0 0.00 0.00 0.00 87 1013.8
20260902014807 78 121 0.0 0.0 0.00 0.00 0.00 86 1013.7
20260902013805 78 121 0.0 0.0 0.00 0.00 0.00 85 1013.6
20260902012756 79 121 0.0 0.0 0.00 0.00 0.00 84 1013.5
20260902011757 80 121 0.0 0.0 0.00 0.00 0.00 83 1013.4
20260902010752 81 121 0.0 0.0 0.00 0.00 0.00 81 1013.4
20260902005733 82 121 0.0 0.0 0.00 0.00 0.00 80 1013.5
20260902004726 83 121 0.0 0.0 0.00 0.00 0.00 77 1013.4
20260902003717 84 121 0.0 0.0 0.00 0.00 0.00 75 1013.4
20260902002712 86 121 0.0 0.0 0.00 0.00 0.00 75 1013.5
20260902001641 87 121 0.0 0.0 0.00 0.00 0.00 72 1013.6
20260902000656 88 121 0.0 0.0 0.00 0.00 0.00 69 1013.6
20260901235721 89 121 0.0 0.0 0.00 0.00 0.00 68 1013.6
20260901233523 92 170 0.0 0.0 0.00 0.00 0.00 61 1013.7
20260901231315 94 169 0.0 4.0 0.00 0.00 0.00 56 1013.8
20260901225126 94 167 0.0 6.0 0.00 0.00 0.00 54 1013.8
20260901223007 95 173 1.0 3.0 0.00 0.00 0.00 51 1013.8
20260901222025 95 136 1.0 5.0 0.00 0.00 0.00 51 1013.8
20260901221014 95 219 1.0 6.0 0.00 0.00 0.00 49 1013.8
20260901220006 95 148 2.0 6.0 0.00 0.00 0.00 51 1013.8
20260901215017 95 163 2.0 6.0 0.00 0.00 0.00 50 1013.8
20260901212918 96 254 1.0 6.0 0.00 0.00 0.00 50 1013.8
20260901211911 96 250 0.0 4.0 0.00 0.00 0.00 48 1013.9
20260901210837 97 248 0.0 6.0 0.00 0.00 0.00 51 1014.1
20260901205845 96 322 0.0 1.0 0.00 0.00 0.00 48 1014.3
20260901204823 96 198 1.0 1.0 0.00 0.00 0.00 47 1014.3
20260901202625 96 49 0.0 3.0 0.00 0.00 0.00 48 1014.5
20260901201647 97 271 0.0 0.0 0.00 0.00 0.00 52 1014.6
20260901200633 96 176 0.0 4.0 0.00 0.00 0.00 50 1014.8
20260901195628 95 147 1.0 2.0 0.00 0.00 0.00 50 1014.9
20260901194613 96 238 0.0 6.0 0.00 0.00 0.00 50 1015.0
20260901193629 96 277 1.0 5.0 0.00 0.00 0.00 53 1015.1
20260901192608 96 148 0.0 6.0 0.00 0.00 0.00 49 1015.2
20260901191534 95 267 1.0 0.0 0.00 0.00 0.00 56 1015.4
20260901190552 96 355 1.0 6.0 0.00 0.00 0.00 51 1015.4
20260901185554 96 188 1.0 6.0 0.00 0.00 0.00 54 1015.6
20260901184526 95 132 0.0 0.0 0.00 0.00 0.00 56 1015.7
20260901182349 95 336 0.0 4.0 0.00 0.00 0.00 54 1016.0
20260901181406 94 244 0.0 0.0 0.00 0.00 0.00 56 1016.3
20260901180410 94 225 1.0 4.0 0.00 0.00 0.00 56 1016.4
20260901175429 93 201 1.0 6.0 0.00 0.00 0.00 59 1016.5